Time,TemperatureF,DewpointF,PressureIn,WindDirection,WindDirectionDegrees,WindSpeedMPH,WindSpeedGustMPH,Humidity,HourlyPrecipIn,Conditions,Clouds,dailyrainin,SoftwareType,DateUTC
2013-06-28 00:01:00,78.9,29.0,29.95,West,271,0.0,-999.0,16,-99.99,,,0.00,weatherlink.com 1.10,2013-06-28 07:01:00,
2013-06-28 00:16:00,79.0,29.0,29.95,West,266,0.0,-999.0,16,-99.99,,,0.00,weatherlink.com 1.10,2013-06-28 07:16:00,
2013-06-28 00:31:00,79.1,29.0,29.94,West,265,1.0,-999.0,16,-99.99,,,0.00,weatherlink.com 1.10,2013-06-28 07:31:00,
2013-06-28 00:46:00,78.8,29.0,29.94,WNW,284,2.0,-999.0,16,-99.99,,,0.00,weatherlink.com 1.10,2013-06-28 07:46:00,
2013-06-28 01:00:00,78.7,29.0,29.94,West,271,5.0,-999.0,16,-99.99,,,0.00,weatherlink.com 1.10,2013-06-28 08:00:00,
2013-06-28 01:15:00,78.6,29.0,29.94,West,267,2.0,-999.0,16,-99.99,,,0.00,weatherlink.com 1.10,2013-06-28 08:15:00,
2013-06-28 01:30:00,78.6,29.0,29.93,NW,305,9.0,-999.0,16,-99.99,,,0.00,weatherlink.com 1.10,2013-06-28 08:30:00,
2013-06-28 01:46:00,78.5,29.0,29.93,West,260,0.0,-999.0,16,-99.99,,,0.00,weatherlink.com 1.10,2013-06-28 08:46:00,
2013-06-28 02:01:00,78.3,28.0,29.93,West,265,0.0,-999.0,16,-99.99,,,0.00,weatherlink.com 1.10,2013-06-28 09:01:00,
2013-06-28 02:16:00,77.9,30.0,29.93,WNW,291,0.0,-999.0,17,-99.99,,,0.00,weatherlink.com 1.10,2013-06-28 09:16:00,
2013-06-28 02:33:00,78.2,25.0,29.92,West,267,0.0,-999.0,14,-99.99,,,0.00,weatherlink.com 1.10,2013-06-28 09:33:00,
2013-06-28 02:46:00,78.2,25.0,29.91,West,268,2.0,-999.0,14,-99.99,,,0.00,weatherlink.com 1.10,2013-06-28 09:46:00,
2013-06-28 03:01:00,78.3,27.0,29.91,West,273,0.0,-999.0,15,-99.99,,,0.00,weatherlink.com 1.10,2013-06-28 10:01:00,
2013-06-28 03:16:00,77.4,28.0,29.91,West,278,0.0,-999.0,16,-99.99,,,0.00,weatherlink.com 1.10,2013-06-28 10:16:00,
2013-06-28 03:31:00,77.1,27.0,29.91,WNW,285,0.0,-999.0,16,-99.99,,,0.00,weatherlink.com 1.10,2013-06-28 10:31:00,
2013-06-28 03:47:00,77.3,28.0,29.91,West,273,1.0,-999.0,16,-99.99,,,0.00,weatherlink.com 1.10,2013-06-28 10:47:00,
2013-06-28 04:01:00,77.4,28.0,29.91,West,269,0.0,-999.0,16,-99.99,,,0.00,weatherlink.com 1.10,2013-06-28 11:01:00,
2013-06-28 04:16:00,78.1,28.0,29.91,West,273,0.0,-999.0,16,-99.99,,,0.00,weatherlink.com 1.10,2013-06-28 11:16:00,
2013-06-28 04:32:00,77.7,28.0,29.91,WSW,254,0.0,-999.0,16,-99.99,,,0.00,weatherlink.com 1.10,2013-06-28 11:32:00,
2013-06-28 04:47:00,76.8,29.0,29.91,West,273,0.0,-999.0,17,-99.99,,,0.00,weatherlink.com 1.10,2013-06-28 11:47:00,
2013-06-28 05:02:00,76.5,28.0,29.91,WNW,296,1.0,-999.0,17,-99.99,,,0.00,weatherlink.com 1.10,2013-06-28 12:02:00,
2013-06-28 05:16:00,76.3,28.0,29.91,WNW,284,0.0,-999.0,17,-99.99,,,0.00,weatherlink.com 1.10,2013-06-28 12:16:00,
2013-06-28 05:33:00,75.6,28.0,29.91,West,260,0.0,-999.0,17,-99.99,,,0.00,weatherlink.com 1.10,2013-06-28 12:33:00,
2013-06-28 05:47:00,76.0,28.0,29.91,West,272,0.0,-999.0,17,-99.99,,,0.00,weatherlink.com 1.10,2013-06-28 12:47:00,
2013-06-28 06:02:00,76.4,28.0,29.92,West,277,0.0,-999.0,17,-99.99,,,0.00,weatherlink.com 1.10,2013-06-28 13:02:00,
2013-06-28 06:17:00,76.6,30.0,29.92,West,262,0.0,-999.0,18,-99.99,,,0.00,weatherlink.com 1.10,2013-06-28 13:17:00,
2013-06-28 06:32:00,76.4,31.0,29.93,West,262,1.0,-999.0,19,-99.99,,,0.00,weatherlink.com 1.10,2013-06-28 13:32:00,
2013-06-28 06:47:00,77.2,32.0,29.94,West,264,1.0,-999.0,19,-99.99,,,0.00,weatherlink.com 1.10,2013-06-28 13:47:00,
2013-06-28 07:02:00,77.7,29.0,29.94,West,266,2.0,-999.0,17,-99.99,,,0.00,weatherlink.com 1.10,2013-06-28 14:02:00,
2013-06-28 07:17:00,79.8,30.0,29.94,West,267,0.0,-999.0,16,-99.99,,,0.00,weatherlink.com 1.10,2013-06-28 14:17:00,
2013-06-28 07:32:00,81.3,29.0,29.95,West,265,0.0,-999.0,15,-99.99,,,0.00,weatherlink.com 1.10,2013-06-28 14:32:00,
2013-06-28 07:47:00,81.6,31.0,29.95,SSE,155,0.0,-999.0,16,-99.99,,,0.00,weatherlink.com 1.10,2013-06-28 14:47:00,
2013-06-28 08:02:00,82.7,32.0,29.95,North,351,0.0,-999.0,16,-99.99,,,0.00,weatherlink.com 1.10,2013-06-28 15:02:00,
2013-06-28 08:17:00,86.3,32.0,29.94,NE,42,1.0,-999.0,14,-99.99,,,0.00,weatherlink.com 1.10,2013-06-28 15:17:00,
2013-06-28 08:32:00,88.0,31.0,29.94,WNW,287,0.0,-999.0,13,-99.99,,,0.00,weatherlink.com 1.10,2013-06-28 15:32:00,
2013-06-28 08:47:00,88.7,30.0,29.93,North,9,1.0,-999.0,12,-99.99,,,0.00,weatherlink.com 1.10,2013-06-28 15:47:00,
2013-06-28 09:02:00,89.0,30.0,29.94,WSW,258,1.0,-999.0,12,-99.99,,,0.00,weatherlink.com 1.10,2013-06-28 16:02:00,
2013-06-28 09:17:00,89.4,30.0,29.94,West,274,1.0,-999.0,12,-99.99,,,0.00,weatherlink.com 1.10,2013-06-28 16:17:00,
2013-06-28 09:32:00,89.7,31.0,29.95,ENE,74,1.0,-999.0,12,-99.99,,,0.00,weatherlink.com 1.10,2013-06-28 16:32:00,
2013-06-28 09:47:00,90.3,31.0,29.95,WNW,302,4.0,-999.0,12,-99.99,,,0.00,weatherlink.com 1.10,2013-06-28 16:47:00,
2013-06-28 10:02:00,90.9,32.0,29.95,NNW,347,0.0,-999.0,12,-99.99,,,0.00,weatherlink.com 1.10,2013-06-28 17:02:00,
2013-06-28 10:17:00,90.8,32.0,29.94,ESE,113,0.0,-999.0,12,-99.99,,,0.00,weatherlink.com 1.10,2013-06-28 17:17:00,
2013-06-28 10:32:00,91.5,32.0,29.94,NE,47,4.0,-999.0,12,-99.99,,,0.00,weatherlink.com 1.10,2013-06-28 17:32:00,
2013-06-28 10:47:00,91.7,32.0,29.93,SSE,155,0.0,-999.0,12,-99.99,,,0.00,weatherlink.com 1.10,2013-06-28 17:47:00,
2013-06-28 11:02:00,92.5,31.0,29.93,NE,38,3.0,-999.0,11,-99.99,,,0.00,weatherlink.com 1.10,2013-06-28 18:02:00,
2013-06-28 11:18:00,93.9,30.0,29.92,SSE,156,0.0,-999.0,10,-99.99,,,0.00,weatherlink.com 1.10,2013-06-28 18:18:00,
2013-06-28 11:47:00,95.3,31.0,29.92,ENE,66,5.0,-999.0,10,-99.99,,,0.00,weatherlink.com 1.10,2013-06-28 18:47:00,
2013-06-28 12:02:00,94.9,30.0,29.91,SE,136,2.0,-999.0,10,-99.99,,,0.00,weatherlink.com 1.10,2013-06-28 19:02:00,
2013-06-28 12:17:00,95.3,31.0,29.91,East,82,0.0,-999.0,10,-99.99,,,0.00,weatherlink.com 1.10,2013-06-28 19:17:00,
2013-06-28 12:32:00,94.5,32.0,29.91,SE,130,6.0,-999.0,11,-99.99,,,0.00,weatherlink.com 1.10,2013-06-28 19:32:00,
2013-06-28 12:47:00,96.2,31.0,29.90,SE,142,8.0,-999.0,10,-99.99,,,0.00,weatherlink.com 1.10,2013-06-28 19:47:00,
2013-06-28 13:02:00,94.0,32.0,29.89,SSE,148,8.0,-999.0,11,-99.99,,,0.00,weatherlink.com 1.10,2013-06-28 20:02:00,
2013-06-28 13:17:00,93.5,32.0,29.89,SE,126,1.0,-999.0,11,-99.99,,,0.00,weatherlink.com 1.10,2013-06-28 20:17:00,
2013-06-28 13:32:00,94.2,32.0,29.88,SSE,167,1.0,-999.0,11,-99.99,,,0.00,weatherlink.com 1.10,2013-06-28 20:32:00,
2013-06-28 13:47:00,94.3,32.0,29.87,SE,142,5.0,-999.0,11,-99.99,,,0.00,weatherlink.com 1.10,2013-06-28 20:47:00,
2013-06-28 14:02:00,95.1,33.0,29.86,SSE,148,1.0,-999.0,11,-99.99,,,0.00,weatherlink.com 1.10,2013-06-28 21:02:00,
2013-06-28 14:18:00,94.8,33.0,29.86,East,94,2.0,-999.0,11,-99.99,,,0.00,weatherlink.com 1.10,2013-06-28 21:18:00,
2013-06-28 14:32:00,95.1,33.0,29.86,SE,126,6.0,-999.0,11,-99.99,,,0.00,weatherlink.com 1.10,2013-06-28 21:32:00,
2013-06-28 14:47:00,95.1,33.0,29.85,ENE,60,0.0,-999.0,11,-99.99,,,0.00,weatherlink.com 1.10,2013-06-28 21:47:00,
2013-06-28 15:02:00,95.9,33.0,29.85,ENE,76,2.0,-999.0,11,-99.99,,,0.00,weatherlink.com 1.10,2013-06-28 22:02:00,
2013-06-28 15:17:00,95.5,35.0,29.84,East,98,9.0,-999.0,12,-99.99,,,0.00,weatherlink.com 1.10,2013-06-28 22:17:00,
2013-06-28 15:32:00,94.1,36.0,29.85,East,83,6.0,-999.0,13,-99.99,,,0.00,weatherlink.com 1.10,2013-06-28 22:32:00,
2013-06-28 15:47:00,92.6,37.0,29.85,East,81,6.0,-999.0,14,-99.99,,,0.00,weatherlink.com 1.10,2013-06-28 22:47:00,
2013-06-28 16:02:00,91.9,36.0,29.84,SE,143,2.0,-999.0,14,-99.99,,,0.00,weatherlink.com 1.10,2013-06-28 23:02:00,
2013-06-28 16:17:00,92.0,36.0,29.84,SSE,155,1.0,-999.0,14,-99.99,,,0.00,weatherlink.com 1.10,2013-06-28 23:17:00,
2013-06-28 16:32:00,91.5,36.0,29.85,ESE,103,6.0,-999.0,14,-99.99,,,0.00,weatherlink.com 1.10,2013-06-28 23:32:00,
2013-06-28 16:47:00,90.4,35.0,29.84,ESE,104,6.0,-999.0,14,-99.99,,,0.00,weatherlink.com 1.10,2013-06-28 23:47:00,
2013-06-28 17:02:00,89.9,35.0,29.84,East,86,2.0,-999.0,14,-99.99,,,0.00,weatherlink.com 1.10,2013-06-29 00:02:00,
2013-06-28 17:17:00,89.6,34.0,29.84,ESE,110,1.0,-999.0,14,-99.99,,,0.00,weatherlink.com 1.10,2013-06-29 00:17:00,
2013-06-28 17:32:00,89.9,35.0,29.84,ENE,58,3.0,-999.0,14,-99.99,,,0.00,weatherlink.com 1.10,2013-06-29 00:32:00,
2013-06-28 17:48:00,90.0,35.0,29.83,SSE,153,4.0,-999.0,14,-99.99,,,0.00,weatherlink.com 1.10,2013-06-29 00:48:00,
2013-06-28 18:02:00,89.6,33.0,29.83,SE,144,6.0,-999.0,13,-99.99,,,0.00,weatherlink.com 1.10,2013-06-29 01:02:00,
2013-06-28 18:24:00,89.2,32.0,29.83,ESE,121,9.0,-999.0,13,-99.99,,,0.00,weatherlink.com 1.10,2013-06-29 01:24:00,
2013-06-28 18:32:00,88.9,32.0,29.83,ESE,110,5.0,-999.0,13,-99.99,,,0.00,weatherlink.com 1.10,2013-06-29 01:32:00,
2013-06-28 18:47:00,88.4,33.0,29.83,SSE,148,1.0,-999.0,14,-99.99,,,0.00,weatherlink.com 1.10,2013-06-29 01:47:00,
2013-06-28 19:02:00,87.7,33.0,29.83,SSE,148,2.0,-999.0,14,-99.99,,,0.00,weatherlink.com 1.10,2013-06-29 02:02:00,
2013-06-28 19:24:00,87.3,33.0,29.84,ENE,72,0.0,-999.0,14,-99.99,,,0.00,weatherlink.com 1.10,2013-06-29 02:24:00,
2013-06-28 19:32:00,86.5,32.0,29.84,ESE,114,0.0,-999.0,14,-99.99,,,0.00,weatherlink.com 1.10,2013-06-29 02:32:00,
2013-06-28 19:47:00,86.2,32.0,29.84,SE,128,0.0,-999.0,14,-99.99,,,0.00,weatherlink.com 1.10,2013-06-29 02:47:00,
2013-06-28 20:02:00,85.6,33.0,29.84,SE,133,0.0,-999.0,15,-99.99,,,0.00,weatherlink.com 1.10,2013-06-29 03:02:00,
2013-06-28 20:24:00,85.7,33.0,29.85,ESE,108,0.0,-999.0,15,-99.99,,,0.00,weatherlink.com 1.10,2013-06-29 03:24:00,
2013-06-28 20:32:00,85.5,33.0,29.86,ESE,114,5.0,-999.0,15,-99.99,,,0.00,weatherlink.com 1.10,2013-06-29 03:32:00,
2013-06-28 20:47:00,85.9,33.0,29.86,SE,134,1.0,-999.0,15,-99.99,,,0.00,weatherlink.com 1.10,2013-06-29 03:47:00,
2013-06-28 21:02:00,85.3,33.0,29.86,ENE,66,0.0,-999.0,15,-99.99,,,0.00,weatherlink.com 1.10,2013-06-29 04:02:00,
2013-06-28 21:24:00,84.6,34.0,29.87,SE,129,0.0,-999.0,16,-99.99,,,0.00,weatherlink.com 1.10,2013-06-29 04:24:00,
2013-06-28 21:32:00,83.1,32.0,29.86,SE,129,0.0,-999.0,16,-99.99,,,0.00,weatherlink.com 1.10,2013-06-29 04:32:00,
2013-06-28 21:47:00,81.9,33.0,29.87,SE,129,0.0,-999.0,17,-99.99,,,0.00,weatherlink.com 1.10,2013-06-29 04:47:00,
2013-06-28 22:02:00,81.2,32.0,29.88,SE,129,0.0,-999.0,17,-99.99,,,0.00,weatherlink.com 1.10,2013-06-29 05:02:00,
2013-06-28 22:24:00,80.3,33.0,29.88,SE,129,0.0,-999.0,18,-99.99,,,0.00,weatherlink.com 1.10,2013-06-29 05:24:00,
2013-06-28 22:32:00,78.5,33.0,29.88,SE,129,0.0,-999.0,19,-99.99,,,0.00,weatherlink.com 1.10,2013-06-29 05:32:00,
2013-06-28 22:47:00,76.8,33.0,29.88,SE,129,0.0,-999.0,20,-99.99,,,0.00,weatherlink.com 1.10,2013-06-29 05:47:00,
2013-06-28 23:02:00,75.6,33.0,29.88,SE,129,1.0,-999.0,21,-99.99,,,0.00,weatherlink.com 1.10,2013-06-29 06:02:00,
2013-06-28 23:24:00,74.6,33.0,29.88,SE,130,0.0,-999.0,22,-99.99,,,0.00,weatherlink.com 1.10,2013-06-29 06:24:00,
2013-06-28 23:32:00,74.3,33.0,29.88,SE,130,0.0,-999.0,22,-99.99,,,0.00,weatherlink.com 1.10,2013-06-29 06:32:00,
2013-06-28 23:47:00,74.6,33.0,29.88,SE,130,0.0,-999.0,22,-99.99,,,0.00,weatherlink.com 1.10,2013-06-29 06:47:00,